Regional Weather Roundup
Issued by NWS

Home | Current Version | Previous Version | Graphics & Text | Print | Product List | Glossary On
Versions: 1 2 3 4 5 6 7 8 9 10 11 12 13 14 15 16 17 18 19 20 21 22 23 24 25 26 27 28
000
ASUS45 KPSR 211710
RWRAZ

ARIZONA HOURLY REGIONAL WEATHER ROUNDUP
NATIONAL WEATHER SERVICE PHOENIX AZ
1000 AM MST THU SEP 21 2017

NOTE: FAIR INDICATES FEW OR NO CLOUDS BELOW 12,000 FEET WITH NO
SIGNIFICANT WEATHER AND/OR OBSTRUCTIONS TO VISIBILITY.

AZZ001>003-036-211800-
NORTHWEST ARIZONA

CITY           SKY/WX    TMP DP  RH WIND       PRES   REMARKS
BULLHEAD CITY  SUNNY     84  45  24 S20G28    29.69F
KINGMAN        SUNNY     78  37  22 S21G28    29.83R
$$

AZZ004>008-015-016-018-211800-
NORTH CENTRAL ARIZONA

CITY           SKY/WX    TMP DP  RH WIND       PRES   REMARKS
GRAND CANYON   SUNNY     66  37  34 SW17G29   30.01F
WILLIAMS       SUNNY     64  30  27 S22G32    30.01F
PRESCOTT       SUNNY     72  34  24 S13       29.97S
FLAGSTAFF      SUNNY     61  28  28 SW21G32   30.06S
PAYSON           N/A     70  27  19 S12G18    30.04S
PAGE           SUNNY     76  39  26 S17G25    29.82F
$$

AZZ009>014-017-211800-
NORTHEAST ARIZONA

CITY           SKY/WX    TMP DP  RH WIND       PRES   REMARKS
WINSLOW        SUNNY     77  18  11 S21G26    29.97F
SAINT JOHNS    SUNNY     77  32  19 SW24G32   30.03F
WINDOW ROCK    SUNNY     70  34  26 S21G31    30.09S
SHOW LOW       SUNNY     70  34  26 S28G35    30.09S
$$

AZZ540-542>544-546-548-211800-
GREATER PHOENIX AREA

CITY           SKY/WX    TMP DP  RH WIND       PRES   REMARKS
PHOENIX        MOSUNNY   86  46  24 S10       29.80S
BUCKEYE        SUNNY     82  39  21 SE7       29.81S
GLENDALE       SUNNY     82  41  23 E5        29.82S
LUKE AFB       SUNNY     83  39  21 CALM      29.80F
DEER VALLEY    SUNNY     84  38  19 S12       29.82S
SCOTTSDALE     SUNNY     84  44  24 MISG      29.84S
MESA-FALCON    SUNNY     84  43  23 S13G18    29.83R
CHANDLER       SUNNY     84  48  28 SE10      29.82S
$$

AZZ539-553-211800-
SOUTHWEST MARICOPA COUNTY AND PINAL COUNTY

CITY           SKY/WX    TMP DP  RH WIND       PRES   REMARKS
CASA GRANDE    NOT AVBL
GILA BEND      SUNNY     88  39  17 S17       29.77S
$$

AZZ503-504-507>509-211800-
SOUTHEAST ARIZONA

CITY           SKY/WX    TMP DP  RH WIND       PRES   REMARKS
TUCSON         SUNNY     86  55  34 S14G22    29.92F
DAVIS-MONTHAN  SUNNY     87  54  32 S16       29.91F
RYAN FIELD     SUNNY     88  55  33 S17       29.90F
NOGALES        SUNNY     83  51  33 S13G20    30.01F
SIERRA VISTA   SUNNY     81  39  22 SW15      30.06S
DOUGLAS        MOSUNNY   80  57  45 SW10G17   30.03F
SAFFORD        SUNNY     86  54  33 S9G18     29.92F
$$

AZZ532-211800-
SOUTHWEST ARIZONA

CITY           SKY/WX    TMP DP  RH WIND       PRES   REMARKS
YUMA           SUNNY     85  47  26 NW8       29.75R
$$

CAZ041-043-047-048-061-525>527-560>570-211800-
SOUTHERN CALIFORNIA

CITY           SKY/WX    TMP DP  RH WIND       PRES   REMARKS
DOWNTOWN L.A.  CLOUDY    68  62  81 W5        29.86S
L.A. AIRPORT   PTSUNNY   67  63  87 W13       29.87R
SAN DIEGO      CLOUDY    69  58  67 S13       29.92S
BURBANK        CLOUDY    65  59  81 SE8       29.86S
ONTARIO        PTSUNNY   68  56  65 W5        29.88S
RIVERSIDE      PTSUNNY   69  59  70 VRB5      29.88S
PALM SPRINGS   SUNNY     80  53  39 S5        29.75R
EL CENTRO NAS  MOSUNNY   87  42  20 W26       29.73F
IMPERIAL       SUNNY     85  47  26 SW7G18    29.73S
BLYTHE         SUNNY     85  48  27 S16       29.73R
NEEDLES        SUNNY     87  45  23 SW15G22   29.71S
$$

NVZ020-UTZ003-211800-
SOUTHERN NEVADA-UTAH

CITY           SKY/WX    TMP DP  RH WIND       PRES   REMARKS
LAS VEGAS      MOSUNNY   78  41  26 S17G30    29.70R
SALT LAKE CITY PTSUNNY   56  41  57 NW9       29.77S
$$

NMZ009-TXZ055-211800-
NEW MEXICO-WEST TEXAS

CITY           SKY/WX    TMP DP  RH WIND       PRES   REMARKS
ALBUQUERQUE    SUNNY     75  39  27 S9        30.06F
EL PASO        MOSUNNY   86  53  32 W9        30.02S
$$


........................KEY........................
SKY/WX - SKY CONDITION/WEATHER
TMP    - TEMPERATURE IN FAHRENHEIT
DP     - DEW POINT IN FAHRENHEIT
RH     - RELATIVE HUMIDITY IN PERCENT
WIND   - DIRECTION AND SPEED IN MILES PER HOUR (MPH)
VRB    - VARIABLE WIND DIRECTION
PRES   - MEAN SEA LEVEL PRESSURE IN INCHES OF MERCURY
         F - FALLING PRESSURE   R - RISING PRESSURE
         S - STEADY PRESSURE
VSB    - VISIBILITY IN MILES
HX     - HEAT INDEX IN FAHRENHEIT
WCI    - WIND CHILL INDEX IN FAHRENHEIT
TC     - TEMPERATURE IN CELSIUS WHICH IS ALSO KNOWN AS
         TEMPERATURE IN CENTIGRADE
AFB    - AIR FORCE BASE
         LUKE AFB IS LUKE AIR FORCE BASE
         DAVIS-MONTHAN IS DAVIS-MONTHAN AIR FORCE BASE
NAS    - NAVAL AIR STATION
         EL CENTRO NAS IS EL CENTRO NAVAL AIR STATION
N/A    - NOT AVAILABLE





USA.gov is the U.S. government's official web portal to all federal, state and local government web resources and services.